#timestamp,LO_Frequency,Hit,StdDev 
1577145615.9,286047000.3,N
1577145635.7,286047001.8,N
1577145655.5,286047007.6,N
1577145675.4,286047000.8,N
1577145695.2,286046995.9,N
1577145715.0,286047001.1,N
1577145715.9,286047001.1,N
1577145735.8,286047002.3,N
1577145755.6,286047002.7,N
1577145775.5,286046995.4,N
1577145795.3,286046993.2,N
1577145815.1,286046992.2,N
1577145835.9,286047005.2,N
1577145855.7,286047007.5,N
1577145875.5,286046999.8,N
1577145895.4,286047003.4,N
1577145915.2,286046997.9,N
1577145935.1,286046993.9,N
1577145936.0,286046993.9,N
1577145955.8,286046991.9,N
1577145975.6,286046990.8,N
1577145995.5,286046992.8,N
1577146015.3,286046995.8,N
1577146035.1,286047010.0,N
1577146055.9,286047016.0,N
1577146075.7,286047009.8,N
1577146095.6,286047008.3,N
1577146115.4,286047006.6,N
1577146135.2,286047004.4,N
1577146155.1,286046999.3,N
1577146156.0,286046999.3,N
1577146175.8,286046993.7,N
1577146195.7,286046995.0,N
1577146215.5,286047008.2,N
1577146235.3,286047012.7,N
1577146255.2,286047016.5,N
1577146275.9,286047012.4,N
1577146295.7,286047009.9,N
1577146315.6,286047001.7,N
1577146335.4,286047000.1,N
1577146355.2,286047003.7,N
1577146375.1,286046999.4,N
1577146376.0,286046999.4,N
1577146395.8,286047006.6,N
1577146415.7,286047003.0,N
1577146435.5,286047000.2,N
1577146455.3,286046993.5,N
1577146475.2,286046990.6,N
1577146495.0,286047005.9,N
1577146495.9,286047005.9,N
1577146515.8,286047002.9,N
1577146535.6,286046998.3,N
1577146555.4,286046992.5,N
1577146575.3,286046992.3,N
1577146595.1,286047005.1,N
1577146615.8,286047005.9,N
1577146635.7,286046994.9,N
1577146655.5,286046990.2,N
1577146675.4,286046990.6,N
1577146695.2,286046995.3,N
1577146715.0,286047004.3,N
1577146715.9,286047004.3,N
1577146735.8,286047004.0,N
1577146755.6,286046994.9,N
1577146775.4,286047003.9,N
1577146795.3,286047005.1,N
1577146815.1,286046995.0,N
1577146835.9,286046989.0,N
1577146855.7,286047001.1,N
1577146875.5,286047005.4,N
1577146895.4,286047002.4,N
1577146915.2,286047003.9,N
1577146935.1,286046993.7,N
1577146936.0,286046993.7,N
1577146955.8,286047000.3,N
1577146975.6,286047006.0,N
1577146995.5,286047001.0,N
1577147015.3,286046993.8,N
1577147035.1,286046993.0,N
1577147055.9,286046988.9,N
1577147075.7,286046996.2,N
1577147095.6,286047002.7,N
1577147115.4,286046998.9,N
1577147135.2,286046994.9,N
1577147155.1,286046998.5,N
1577147156.0,286046998.5,N
1577147175.8,286047004.8,N
1577147195.6,286047012.2,N
1577147215.5,286047003.9,N
1577147235.3,286047001.9,N
1577147255.2,286046998.1,N
1577147275.9,286047004.1,N
1577147295.7,286047001.4,N
1577147315.6,286046999.9,N
1577147335.4,286046996.2,N
1577147355.2,286046999.1,N
1577147375.1,286046999.2,N
1577147376.0,286046999.2,N
1577147395.8,286046996.7,N
1577147415.7,286046991.7,N
1577147435.5,286046998.2,N
1577147455.3,286047005.6,N
1577147475.2,286047000.9,N
1577147495.0,286046996.6,N
1577147495.9,286046996.6,N
1577147515.8,286046991.8,N
1577147535.6,286046989.9,N
1577147555.4,286046994.7,N
1577147575.3,286046993.5,N
1577147595.1,286046992.4,N
1577147615.8,286046991.7,N
1577147635.7,286046986.1,N
1577147655.5,286046993.9,N
1577147675.4,286046991.5,N
1577147695.2,286046982.9,Y
1577147715.0,286046991.5,P
1577147715.9,286046991.5,N
1577147735.8,286046993.2,N
1577147755.6,286046990.4,Y
1577147775.4,286046993.1,P
1577147795.3,286046985.6,P
1577147815.1,286046985.7,P
1577147835.9,286046992.2,N
1577147855.7,286046997.5,N
1577147875.5,286047002.2,N
1577147895.4,286046997.8,N
1577147915.2,286046994.4,N
1577147935.0,286046996.1,N
1577147935.9,286046996.1,N
1577147955.8,286047001.0,N
1577147975.6,286047004.8,N
1577147995.5,286047002.6,N
1577148015.3,286046999.1,N
1577148035.1,286046996.4,N
1577148055.9,286046988.8,N
1577148075.7,286046991.7,N
1577148095.5,286046991.9,N
1577148115.4,286046992.2,N
1577148135.2,286046988.4,N
1577148155.1,286046986.5,N
1577148156.0,286046986.5,N
1577148175.8,286046982.2,Y
1577148195.6,286046995.8,P
1577148215.5,286046993.3,P
1577148235.3,286047003.1,N
1577148255.1,286046999.7,N
1577148275.9,286046995.1,N
1577148295.7,286046994.1,N
1577148315.6,286046999.1,N
1577148335.4,286047006.0,N
1577148355.2,286047003.3,N
1577148375.1,286046999.3,N
1577148376.0,286046999.3,N
1577148395.8,286047000.1,N
1577148415.6,286047004.4,N
1577148435.5,286047001.6,N
1577148455.3,286047012.2,Y
1577148475.2,286047012.8,P
1577148495.0,286047005.1,N
1577148495.9,286047005.1,N
1577148515.7,286047007.3,N
1577148535.6,286047009.6,N
1577148555.4,286047005.9,N
1577148575.3,286047001.3,N
1577148595.1,286047008.5,N
1577148596.0,286047008.5,N
1577148615.8,286047018.8,Y
1577148635.7,286047013.5,P
1577148655.5,286047003.8,N
1577148675.3,286047011.7,N
1577148695.2,286047010.8,N
1577148715.0,286047008.2,N
1577148715.9,286047008.2,N
1577148735.8,286047008.1,N
1577148755.6,286047005.5,N
1577148775.4,286047006.8,N
1577148795.3,286047011.0,Y
1577148815.1,286046997.8,P
1577148835.9,286046994.9,N
1577148855.7,286047009.0,N
1577148875.5,286047008.9,N
1577148895.4,286046999.6,N
1577148915.2,286046992.5,N
1577148935.0,286046994.8,N
1577148935.9,286046994.8,N
1577148955.8,286047005.8,N
1577148975.6,286047006.0,N
1577148995.5,286046999.8,N
1577149015.3,286047002.0,N
1577149035.1,286047003.4,N
1577149055.9,286046999.0,N
1577149075.7,286046994.7,N
1577149095.5,286046989.0,N
1577149115.4,286046993.6,N
1577149135.2,286046997.5,N
1577149155.1,286046992.0,N
1577149156.0,286046992.0,N
1577149175.8,286046996.3,N
1577149195.6,286046994.3,N
